Location: Gorze? G�rny
(49.8500°N, 19.5000°E)
Time: 05:16:01
(UTC+00:00)

Spot 4 - Pass Details

Date: 13 May 2021
Orbit: 703 x 724 km, 98.3° (Epoch: 20 June)

Event Time Altitude Azimuth Distance (km) Brightness Sun altitude
Exits shadow 21:49:36 46° 186° (S) 971 4.1 -20.7°
Maximum altitude 21:51:01 73° 257° (WSW) 762 3.9 -20.7°
Drops below altitude 10° 21:55:53 10° 342° (NNW) 2,222 7.6 -20.9°
Sets 21:58:11 0° 345° (NNW) 3,145 8.7 -21.0°
